Simultaneous Nadir Overpasses (SNOs) Predictions

Prediction of SNOs between AQUA and NPP Satellite Orbit:

Table of predicted SNOs for the next 14.0 days since TLE Epoch: 10/22/2016
Index Date (AQUA) Time (AQUA) Lat,Lon (AQUA) SZA (AQUA ) Date (NPP) Time (NPP) Lat,Lon (NPP) SZA (NPP ) Distance(km) Time Diff (sec)
1 10/23/2016 05:31:56 -75.44, 154.34 71.76 10/23/2016 05:31:41 -75.45, 154.42 71.77 2.49 15
2 10/23/2016 06:21:00 76.51, -34.75 107.11 10/23/2016 06:22:02 76.51, -34.68 107.04 2.01 62
3 10/25/2016 20:59:17 74.52, 100.17 110.06 10/25/2016 20:58:10 74.53, 100.24 110.11 2.21 67
4 10/25/2016 21:48:19 -75.80, -88.74 71.26 10/25/2016 21:48:29 -75.81, -88.68 71.29 1.93 10
5 10/28/2016 13:15:37 75.03,-142.67 110.40 10/28/2016 13:14:55 75.04,-142.59 110.42 2.31 42
6 10/28/2016
